sat.trackr.live / text

‹ back to catalog

ONEWEB-0536

NORAD 54148 · 2022-138AM

PAYLOAD ACTIVE UNKNOWN

§ Identity

Operator
Country
UK
Launch date
2022-10-22
Launch site
SRILR
Launch vehicle
Mass (kg)
RCS (m²)

Purposes: comms

External: N2YO · Heavens-Above · Gunter

§ Orbital elements

Epoch: 2026-05-24T21:16:29.228160Z

Period
109.03 min
Inclination
87.9163°
Eccentricity
0.0002248
Mean motion
13.20772315 rev/d
Perigee alt
1,180.1 km
Apogee alt
1,183.5 km
Semi-major
7,559.9 km
B*
-4.3082e-5
RAAN
279.1060°
Arg perigee
126.0760°
Mean anomaly
234.0582°
Rev number
17,622

§ Raw data

ONEWEB-05361 54148U 22138AM  26144.88644940 -.00000005  00000+0 -43082-4 0  99952 54148  87.9163 279.1060 0002248 126.0760 234.0582 13.20772315176224

JSON: /api/v1/satellites/54148 · /tle

For live sub-satellite position, see the globe view (requires WebGL).

§ Visibility from observer

Set your observer location to see the next 7 days of passes ≥ 10°. The values pass through the URL so the page stays shareable.

No JS? Fill the form by hand. The geolocation button needs JavaScript.